Regional Weather Roundup
Issued by NWS

Home | Current Version | Previous Version | Graphics & Text | Print | Product List | Glossary On
Versions: 1 2 3 4 5 6 7 8 9 10 11 12 13 14 15 16 17 18 19 20 21 22 23 24 25 26 27 28 29 30 31 32 33 34 35 36 37 38 39 40 41 42 43 44 45 46 47 48 49 50
000
ASUS45 KBOU 292310
RWRCO

WEATHER ROUNDUP FOR COLORADO
NATIONAL WEATHER SERVICE DENVER/BOULDER CO
500 PM MDT THU SEP 29 2016

NOTE: "FAIR" INDICATES FEW OR NO CLOUDS BELOW 12000 FEET WITH NO
SIGNIFICANT WEATHER AND/OR OBSTRUCTIONS TO VISIBILITY.

COZ001>005-013-030-031-300000-
...NORTHWEST COLORADO...

CITY           SKY/WX    TMP DP  RH WIND       PRES   REMARKS
CRAIG          CLOUDY    60  51  72 SE3       30.40F
HAYDEN         FAIR      57  46  67 NW7       30.41F
MEEKER         CLOUDY    61  52  72 E3        30.40F
MOUNT WERNER   NOT AVBL
STEAMBOAT SPGS PTSUNNY   61  47  61 SW6       30.41R
WALDEN           N/A     61  32  33 SW10G18   30.46R
$$

COZ006>008-011-300000-
...WEST CENTRAL VALLEYS...

CITY           SKY/WX    TMP DP  RH WIND       PRES   REMARKS
GRAND JUNCTION CLOUDY    65  55  70 CALM      30.34S
MONTROSE       CLOUDY    64  45  49 N7        30.40R
EAGLE          PTSUNNY   68  41  37 W12G18    30.38F
RIFLE          CLOUDY    66  51  58 CALM      30.36S
DELTA          LGT RAIN  67  55  65 CALM      30.37S
NUCLA          CLOUDY    61  52  72 N3        30.46S
$$

COZ017>023-064>068-300000-
...SOUTHWEST COLORADO...

CITY           SKY/WX    TMP DP  RH WIND       PRES   REMARKS
DURANGO        LGT RAIN  55  50  83 SW5       30.50R
CORTEZ         CLOUDY    58  53  84 CALM      30.43F
PAGOSA SPRINGS FAIR      59  43  54 W9        30.52S
TELLURIDE      CLOUDY    54  39  57 CALM      30.57S
WOLF CREEK PAS FAIR      39  36  87 SW7       30.75S
$$

COZ009-010-012-014-032>034-037-058>063-300000-
...CENTRAL COLORADO...

CITY           SKY/WX    TMP DP  RH WIND       PRES   REMARKS
ASPEN          PTSUNNY   65  37  35 NW7       30.42F
BUENA VISTA    CLOUDY    69  24  18 SE14G20   30.43S
COPPER MTN     CLOUDY    52  30  43 S3        30.72S
BERTHOUD PASS  CLOUDY    43  30  61 SW8       30.74S
COTTONWOOD PAS CLOUDY    63  21  20 E15G23    30.56F
GUNNISON       CLOUDY    67  34  29 SW5       30.43S
KREMMLING      CLOUDY    70  32  24 W12       30.41S
LEADVILLE      CLOUDY    57  27  31 CALM      30.55F
MONARCH PASS   CLOUDY    50  27  40 SW13      30.81S
SALIDA         PTSUNNY   74  25  15 SE13G23   30.47F
SUNLIGHT       LGT RAIN  50  43  76 SW6       30.66R
WILKERSON PASS FAIR      59  21  23 SW5G17    30.68S
$$

COZ069>075-300000-
...SAN LUIS VALLEY/SANGRE DE CRISTO MOUNTAINS...

CITY           SKY/WX    TMP DP  RH WIND       PRES   REMARKS
ALAMOSA        FAIR      74  30  19 SE12      30.40F
LA VETA PASS   FAIR      57  28  33 MISG      30.61R
SAGUACHE       CLOUDY    68  30  24 S7        30.46
$$

COZ035-036-038>040-300000-
...NORTHERN COLORADO FRONT RANGE...

CITY           SKY/WX    TMP DP  RH WIND       PRES   REMARKS
DENVER INTL AP FAIR      85  34  16 SW9       30.21R
DMNS CITY PARK   N/A     78  40  25 NW6       30.23R
AURORA         MOSUNNY   83  30  14 S12       30.24S
FRONT RANGE AP MOSUNNY   86  28  12 S14G23    30.24S
ERIE MUNI ARPT FAIR      79  37  22 N6        30.22F
BOULDER MUN AP FAIR      73  37  27 CALM      30.23F
CENTENNIAL     FAIR      80  28  15 S16       30.25F
BROOMFIELD     PTSUNNY   77  39  25 NW6       30.26S
FORT COLLINS   FAIR      79  39  24 N8        30.19F
LONGMONT       FAIR      76  44  31 NW5       30.23F
$$

COZ041-046-047-076>085-087-088-300000-
...PIKES PEAK/PALMER DIVIDE AND SOUTHERN FOOTHILLS...

CITY           SKY/WX    TMP DP  RH WIND       PRES   REMARKS
COLO. SPRINGS  FAIR      77  33  20 S20       30.33F
A. F. ACADEMY  FAIR      74  33  21 SE17      30.34S
SCHRIEVER AFB  NOT AVBL
ELLICOTT       NOT AVBL
FALCON         FAIR      74  29  19 S17G24    30.39S
FORT CARSON    FAIR      78  34  19 S12       30.30F
LIMON          FAIR      79  30  16 S17G28    30.29S
MONUMENT HILL  FAIR      72  30  21 S22G30    30.37S
TRINIDAD       FAIR      77  31  18 S14       30.31S
$$

COZ042>045-048>051-090-091-300000-
...NORTHEAST COLORADO...

CITY           SKY/WX    TMP DP  RH WIND       PRES   REMARKS
GREELEY ARPT   FAIR      84  37  18 E10       30.18F
AKRON          FAIR      78  39  24 SE26G32   30.25F
BURLINGTON     FAIR      76  39  26 S17G31    30.29F
WRAY           NOT AVBL
STERLING       FAIR      81  43  26 SE16G22   30.20F
HOLYOKE        FAIR      79  43  27 SE18G24   30.26F
FORT MORGAN    FAIR      84  31  14 SE13G22   30.20F
$$

COZ086-089-092>099-300000-
...SOUTHEAST COLORADO...

CITY           SKY/WX    TMP DP  RH WIND       PRES   REMARKS
PUEBLO         FAIR      85  34  16 SE20      30.21F
LA JUNTA       FAIR      86  37  17 SE16G24   30.21F
LAMAR          FAIR      81  43  26 S18       30.23F
SPRINGFIELD      N/A     73  45  36 S18       30.30F
$$



USA.gov is the U.S. government's official web portal to all federal, state and local government web resources and services.